Terminal Aerodrome Forecast
Issued by NWS Billings, MT

Home | Current Version | Previous Version | Text Only | Print | Product List | Glossary Off
Versions: 1 2 3 4 5 6 7 8 9 10 11 12 13 14 15 16 17 18 19 20 21 22 23 24 25 26 27 28 29 30 31 32 33 34 35 36 37 38 39 40 41 42 43 44 45 46

000
FTUS45 KBYZ 261902 AAA
TAFMLS
TAF AMD
KMLS 261902Z 2619/2718 07009KT 2SM -SN BR FEW016 BKN040 OVC050
      TEMPO 2619/2622 1 1/2SM -SN BR BKN016 OVC035
     FM262200 06006KT 3/4SM -SN BR BKN004 OVC008
     FM270300 15011KT 5SM -SN BR SCT012 OVC030
     FM270600 15015KT P6SM SCT030 BKN060
     FM271600 20010KT P6SM BKN100 WS012/27040KT=

USA.gov is the U.S. government's official web portal to all federal, state and local government web resources and services.